Weather History for KSAW - March, 2014

Change the Weather History Date:

Saturday, March 15, 2014

  Actual Average (KESC) Record (KESC)
Temperature  
Mean Temperature 12 °F -  
Max Temperature 22 °F 36 °F 62 °F (2012)
Min Temperature 3 °F 19 °F -2 °F (1997)
Degree Days  
Heating Degree Days 52    
Moisture  
Dew Point 8 °F    
Average Humidity 82    
Maximum Humidity 89    
Minimum Humidity 72    
Precipitation  
Precipitation 0.00 in - - ()
Sea Level Pressure  
Sea Level Pressure 30.02 in    
Wind  
Wind Speed 16 mph (North)    
Max Wind Speed 20 mph    
Max Gust Speed 25 mph    
Visibility 4 miles    
Events Snow    
Averages and records for this station are not official NWS values.
T = Trace of Precipitation, MM = Missing Value Source: NWS Daily Summary

Daily Weather History Graph

Daily Weather History Graph

Search for Another Location

Airport or City:

Trip Planner

Search our weather history database for the weather conditions in past years. The results will help you decide how hot, cold, wet, or windy it might be!

Date:

Astronomy

Mar. 15, 2014 Rise Set
Actual Time 8:02 AM EDT 7:55 PM EDT
Civil Twilight 7:32 AM EDT 8:25 PM EDT
Nautical Twilight 6:57 AM EDT 9:00 PM EDT
Astronomical Twilight 6:21 AM EDT 9:36 PM EDT
Moon 7:13 PM EDT (3/15) 7:16 AM EDT (3/15)
Length of Visible Light 12h 53m
Length of Day
11h 53m
Waxing Gibbous, 99% of the Moon is Illuminated
Mar 15
Waxing Gibbous
Mar 16
Full
Mar 23
Last Quarter
Mar 30
New
Apr 7
First Quarter

Hourly Weather History & Observations

Time (EDT) Temp. Windchill Dew Point Humidity Pressure Visibility Wind Dir Wind Speed Gust Speed Precip Events Conditions
12:16 AM 22.6 °F 8.3 °F 19.4 °F 87% 29.70 in 2.5 mi North 18.4 mph 25.3 mph N/A Snow Light Snow
12:36 AM 22.1 °F 8.0 °F 18.5 °F 86% 29.72 in 3.0 mi North 17.3 mph 24.2 mph N/A Snow Light Snow
12:57 AM 21.6 °F 9.3 °F 18.1 °F 87% 29.72 in 5.0 mi North 12.7 mph - N/A Snow Light Snow
1:16 AM 21.4 °F 8.5 °F 18.1 °F 87% 29.73 in 5.0 mi North 13.8 mph 18.4 mph N/A Snow Light Snow
1:36 AM 20.8 °F 7.9 °F 18.0 °F 89% 29.74 in 2.5 mi North 13.8 mph - N/A Snow Light Snow
1:56 AM 20.1 °F 5.9 °F 17.4 °F 89% 29.75 in 1.2 mi North 16.1 mph - N/A Snow Light Snow
2:16 AM 19.8 °F 5.4 °F 16.3 °F 87% 29.77 in 2.5 mi North 16.1 mph 23.0 mph N/A Snow Light Snow
2:37 AM 19.2 °F 4.7 °F 15.8 °F 87% 29.78 in 1.8 mi North 16.1 mph - N/A Snow Light Snow
2:56 AM 18.9 °F 2.9 °F 16.0 °F 89% 29.79 in 1.2 mi North 19.6 mph - N/A Snow Light Snow
3:17 AM 18.5 °F 2.9 °F 15.8 °F 89% 29.80 in 1.2 mi North 18.4 mph - N/A Snow Snow
3:36 AM 18.3 °F 2.2 °F 15.6 °F 89% 29.81 in 1.5 mi North 19.6 mph - N/A Snow Light Snow
3:56 AM 17.4 °F 1.0 °F 14.5 °F 88% 29.82 in 1.0 mi North 19.6 mph 25.3 mph N/A Snow Snow
4:16 AM 17.1 °F 1.5 °F 14.0 °F 88% 29.83 in 1.0 mi North 17.3 mph - N/A Snow Light Snow
4:36 AM 17.2 °F 3.3 °F 13.8 °F 86% 29.84 in 3.0 mi North 13.8 mph 17.3 mph N/A Snow Light Snow
4:57 AM 16.7 °F 3.8 °F 13.6 °F 88% 29.85 in 2.5 mi North 11.5 mph - N/A Snow Light Snow
5:16 AM 16.0 °F 1.1 °F 12.2 °F 85% 29.86 in 1.5 mi North 15.0 mph 21.9 mph N/A Snow Light Snow
5:36 AM 15.4 °F -0.1 °F 11.3 °F 84% 29.87 in 7.0 mi North 16.1 mph - N/A Snow Light Snow
5:56 AM 15.3 °F 0.8 °F 10.6 °F 82% 29.89 in 5.0 mi North 13.8 mph 19.6 mph N/A Snow Light Snow
6:50 AM 14.0 °F 2.0 °F 10.4 °F 86% 29.93 in 4.0 mi North 9.2 mph - N/A Snow Light Snow
7:55 AM 12.2 °F -1.0 °F 6.8 °F 79% 29.96 in 7.0 mi North 10.4 mph - N/A Snow Light Snow
8:50 AM 12.2 °F -1.8 °F 6.8 °F 79% 29.99 in 5.0 mi North 11.5 mph 17.3 mph N/A Snow Light Snow
9:50 AM 10.4 °F -6.0 °F 5.0 °F 79% 30.03 in 4.0 mi NNW 15.0 mph 20.7 mph N/A Snow Light Snow
10:50 AM 10.4 °F -7.2 °F 3.2 °F 73% 30.07 in 4.0 mi North 17.3 mph 23.0 mph N/A Snow Light Snow
11:50 AM 10.4 °F -5.4 °F 5.0 °F 79% 30.10 in 0.2 mi North 13.8 mph - N/A Snow Snow
12:50 PM 10.4 °F -7.2 °F 5.0 °F 79% 30.12 in 1.0 mi North 17.3 mph - N/A Snow Light Snow
1:50 PM 10.4 °F -6.0 °F 5.0 °F 79% 30.15 in 0.8 mi NNE 15.0 mph - N/A Snow Light Snow
2:45 PM 10.4 °F -5.4 °F 5.0 °F 79% 30.18 in 0.8 mi North 13.8 mph - N/A Snow Light Snow
3:50 PM 10.4 °F -7.2 °F 5.0 °F 79% 30.20 in 1.0 mi NNE 17.3 mph - N/A Snow Light Snow
4:45 PM 10.4 °F -6.6 °F 5.0 °F 79% 30.22 in 2.0 mi NNE 16.1 mph - N/A   Haze
5:55 PM 10.4 °F -7.2 °F 3.2 °F 73% 30.25 in 4.0 mi North 17.3 mph - N/A   Haze
6:50 PM 8.6 °F -10.0 °F 1.4 °F 73% 30.28 in 3.0 mi North 18.4 mph - N/A   Haze
7:55 PM 6.8 °F -10.7 °F 1.4 °F 79% 30.31 in 5.0 mi North 15.0 mph - N/A   Haze
8:45 PM 5.0 °F -8.1 °F -0.4 °F 78% 30.34 in 10.0 mi North 8.1 mph - N/A   Scattered Clouds
9:50 PM 3.2 °F -12.2 °F -0.4 °F 85% 30.35 in 10.0 mi North 10.4 mph - N/A   Scattered Clouds
10:17 PM 4.1 °F -12.7 °F -0.4 °F 82% 30.36 in 7.0 mi North 12.7 mph - N/A Snow Light Snow
10:36 PM 4.3 °F -13.2 °F -0.8 °F 80% 30.36 in 10.0 mi North 13.8 mph - N/A   Clear
10:57 PM 4.1 °F -15.3 °F -1.7 °F 77% 30.37 in 10.0 mi North 17.3 mph - N/A   Clear
11:16 PM 4.5 °F -14.9 °F -1.5 °F 76% 30.37 in 7.0 mi North 17.3 mph - N/A   Clear
11:37 PM 4.1 °F -14.1 °F -2.4 °F 75% 30.38 in 10.0 mi NNE 15.0 mph - N/A   Clear
11:56 PM 3.6 °F -16.6 °F -3.6 °F 72% 30.38 in 7.0 mi NNE 18.4 mph 25.3 mph N/A   Clear